Tracking 28920 objects as of 25-May-2024
HD Live streaming from Space Station
objects crossing your sky now

FLOCK 4Y 24

Track FLOCK 4Y 24 now!
10-day predictions
FLOCK 4Y 24 is classified as:


NORAD ID: 55020
Int'l Code: 2023-001M
Perigee: 484.0 km
Apogee: 495.2 km
Inclination: 97.4 °
Period: 94.3 minutes
Semi major axis: 6860 km
RCS: Unknown
Launch date: January 3, 2023
Source: United States (US)
Launch site: AIR FORCE EASTERN TEST RANGE (AFETR)
Your satellite tracking list
Your tracking list is empty




NASA's NSSDC Master Catalog

Two Line Element Set (TLE):
1 55020U 23001M   24145.92833057  .00022706  00000-0  83741-3 0  9994
2 55020  97.4258 207.8090 0008154 245.2229 114.8162 15.27768497 77226
Source of the keplerian elements: AFSPC